Overview Statistics Trail Chart Weather Telemetry Raw packets
 

This is the latest recevied weather packets stored in our database for station/object SV9TNF-51. If no packets are shown the sender has not sent any weather packets the latest 10 day(s).

<< 27 28 29 30 31 32 33 >>
Time Temp. Humidity Pressure Rain* Wind** Luminosity Snow
1788482675 24.44° C 61% 1010.5 hPa 0 mm 4.02 m/s, 336° - -
1788482368 24.44° C 62% 1010.5 hPa 0 mm 2.68 m/s, 134° - -
1788482068 24.44° C 63% 1010.5 hPa 0 mm 3.58 m/s, 340° - -
1788481768 24.44° C 63% 1010.5 hPa 0 mm 4.02 m/s, 45° - -
1788481468 24.44° C 62% 1010.5 hPa 0 mm 4.92 m/s, 331° - -
1788481167 24.44° C 61% 1010.5 hPa 0 mm 4.92 m/s, 334° - -
1788480868 24.44° C 62% 1010.5 hPa 0 mm 2.24 m/s, 162° - -
1788480567 24.44° C 63% 1010.5 hPa 0 mm 3.58 m/s, 148° - -
1788480268 24.44° C 62% 1010.5 hPa 0 mm 7.15 m/s, 318° - -
1788479967 24.44° C 62% 1010.5 hPa 0 mm 6.71 m/s, 321° - -
1788479667 24.44° C 58% 1010.5 hPa 0 mm 4.47 m/s, 309° - -
1788479367 24.44° C 56% 1010.5 hPa 0 mm 5.81 m/s, 317° - -
1788479067 24.44° C 55% 1010.5 hPa 0 mm 3.58 m/s, 166° - -
1788478767 24.44° C 54% 1010.5 hPa 0 mm 3.13 m/s, 323° - -
1788478467 24.44° C 55% 1010.5 hPa 0 mm 3.13 m/s, 329° - -
1788478174 24.44° C 56% 1010.5 hPa 0 mm 3.58 m/s, 330° - -
1788477867 24.44° C 56% 1010.5 hPa 0 mm 4.02 m/s, 322° - -
1788477566 24.44° C 56% 1010.5 hPa 0 mm 4.92 m/s, 321° - -
1788477266 24.44° C 58% 1010.5 hPa 0 mm 5.36 m/s, 331° - -
1788476966 24.44° C 58% 1010.5 hPa 0 mm 4.47 m/s, 334° - -
1788476666 24.44° C 59% 1010.5 hPa 0 mm 4.92 m/s, 335° - -
1788476366 24.44° C 58% 1010.5 hPa 0 mm 3.13 m/s, 330° - -
1788476066 24.44° C 58% 1010.5 hPa 0 mm 4.47 m/s, 317° - -
1788475766 24.44° C 55% 1010.8 hPa 0 mm 4.92 m/s, 321° - -
1788475466 25° C 57% 1010.8 hPa 0 mm 6.26 m/s, 333° - -

* Rain latest hour (hover to see other rain measurements)
** Current wind speed in m/s (hover to see current wind gust speed)